General Heriberto Jara International Airport
MMVR : now visible

Airfield :











YOU CAN JOIN US ON...

 
LOGIN :

Register | Disclaimer

   EN    FR    IT 

 









Legend :    VFR   Marginal VFR   IFR   Intensive IFR   Very Intensive IFR
Visi :
Ceiling :
>= 8 km
>= 3000ft
5 to 8 km
1000 to 3000 ft
1500m to 5 km
500 to 1000 ft
800 to 1500m
200 to 500 ft
< 800m
< 200 ft
Symbols :   Thunderstorms  Fog  Heavy snow  Heavy precipitations  Wind > 20 kt






- Airport Elevation : 90 ft
- IATA code : VER


MMVR - General Heriberto Jara International

EXPIRED METARs :
  • 310343Z 03012KT 7SM SCT012 BKN100 27/22 A2996 RMK 8/150 HZY

TAF TAF MMVR
Valid from the 31 at 06:00 until the 01 at 06:00 UTC


310419Z 3106/0106 36010KT P6SM SCT012 BKN100 TX30/3119Z TN24/3112Z
BECMG 3109/3110 32006KT 5SM HZ
FM311700 35020KT 6SM HZ SCT015
TEMPO 3121/0101 5SM -TSRA BKN015
MMFR FIR / North America



MET'MAP, your aeronautical weather chart ! - Copyright ORBIFLY December 2007 - Disclaimer

ORBIFLY MET'MAP TEAM :

Programming & Development : Alexandra Zaïnal
Concept & original design : Baudouin d'Aumeries
Assistance for programming : Marc-Olivier Méhu
Technical & hardware support : Manuel Goepfert

Contact : metmap@orbifly.com




SOURCES & CREDITS :

   NOAA       Earth
Advisory